STARLINK-3795

operational
NORAD ID: 52264 Int'l Des: 2022-041 Owner: SPXS Country: US Constellation: starlink
LEOCIRCULAR

Über STARLINK-3795

Beschreibung wird geladen...

Live-Position

3D-Globus wird geladen...

Nächste Überflüge

Höhenverlauf

Altitude vs Time

uPlot chart will show altitude changes over time

Zweizeiliger Elementsatz

1 52264U 22041D 25251.61429395 .00001429 00000-0 10787-3 0 9994
2 52264 53.2165 206.4880 0001422 90.8550 269.2605 15.08843687186877
Epoch: 8. Sept. 2025 • Age: 17 hours

Aktueller Status

Höhe 552.3 km
Geschwindigkeit 7.59 km/s
Subsatellitenpunkt -36.66°S, 60.76°E
Startdatum 21. Apr. 2022
Alter 3.3 years
Typ internet

Technische Details

Klassifizierung Payload
Masse 297.00 kg
Trockenmasse 275.00 kg
Gesamtmasse 297.00 kg
Länge 0.20 m
Durchmesser 2.80 m
Spannweite 9.00 m
Form Box + pan
Hersteller SPXS
Bus-Typ Starlink
Phasenstatus In Orbit
Besitzer/Staat SPXS/US

Große Konstellationen

Loading constellations...